STARLINK-5460 (55671 NORAD) Tracking and Keplerian Element Data

This shows tracking and keplerian element data for the satellite.

Feedback or suggestion? Click here.




ElementValue
Catalog55671
NameSTARLINK-5460
Epoch Orbit130
Epoch Day62.91667824
Epoch Year2023
RAAN110.1792
Inclination70
Eccentricity0.0003514
Argument of Perigee269.2645
Mean Anonmoly343.678
Mean Motion15.7532483
Decay Rate-0.00973197
L11 55671U 23021AV 23062.91667824 -.00973197 00000+0 -72077-2 0 9990
L22 55671 70.0000 110.1792 0003514 269.2645 343.6780 15.75324830 1304



Live tracking and technical data element details for STARLINK-5460 (NORAD 55671). STARLINK-5460 can be tracked NOW for your location showing map with azimuth and elevation plus other details from your city location.







IsCatalogInMostPopularTable: catalog: 55671, numindb: 1
Update: records affected: 1



GetName: 55671 STARLINK-5460

Hit Count: updated at: Wed, 22 Mar 2023 16:07:23 GMT